GFSNE_prec_kratio_102.txt.gz
Kuchera_Ratio
0.0 0.0 0.0 0.0 0.0 0.0 0.0 0.0 0.0 0.0 0.0 0.0 0.0 0.0 0.0 0.0 0.0 0.0 0.0 0.0 0.0 0.0 0.0 0.0 0.0 0.0 0.0 0.0 0.0 0.0 0.0 0.0 0.0 0.0 0.0 0.0 0.0 0.0
0.0 0.0 0.0 0.0 0.0 0.0 0.0 0.0 0.0 0.0 0.0 0.0 0.0 0.0 0.0 0.0 0.0 0.0 0.0 0.0 0.0 0.0 0.0 0.0 0.0 0.0 0.0 0.0 0.0 0.0 0.0 0.0 0.0 0.0 0.0 0.0 0.0 0.0
0.0 0.0 0.0 0.0 0.0 0.0 0.0 0.0 0.0 0.0 0.0 0.0 0.0 0.0 0.0 0.0 0.0 0.0 0.0 0.0 0.0 0.0 0.0 0.0 0.0 0.0 0.0 0.0 0.0 0.0 0.0 0.0 0.0 0.0 0.0 0.0 0.0 0.0
0.0 0.0 0.0 0.0 0.0 0.0 0.0 0.0 0.0 0.0 0.0 0.0 0.0 0.0 0.0 0.0 0.0 0.0 0.0 0.0 0.0 0.0 0.0 0.0 0.0 0.0 0.0 0.0 0.0 0.0 0.0 0.0 0.0 0.0 0.0 0.0 0.0 0.0
0.0 0.0 0.0 0.0 0.0 0.0 0.0 0.0 0.0 0.0 0.0 0.0 0.0 0.0 0.0 0.0 0.0 0.0 0.0 0.0 0.0 0.0 0.0 0.0 0.0 0.0 0.0 0.0 0.0 0.0 0.0 0.0 0.0 0.0 0.0 0.0 0.0 0.0
0.0 0.0 0.0 0.0 0.0 0.0 0.0 0.0 0.0 0.0 0.0 0.0 0.0 0.0 0.0 0.0 0.0 0.0 0.0 0.0 0.0 0.0 0.0 0.0 0.0 0.0 0.0 0.0 0.0 0.0 0.0 0.0 0.0 0.0 0.0 0.0 0.0 0.0
0.0 0.0 0.0 0.0 0.0 0.0 0.0 0.0 0.0 0.0 0.0 0.0 0.0 0.0 0.0 0.0 0.0 0.0 0.0 0.0 0.0 0.0 0.0 0.0 0.0 0.0 0.0 0.0 0.0 0.0 0.0 0.0 0.0 0.0 0.0 0.0 0.0 0.0
0.0 0.0 0.0 0.0 0.0 0.0 0.0 0.0 0.0 0.0 0.0 0.0 0.0 0.0 0.0 0.0 0.0 0.0 0.0 0.0 0.0 0.0 0.0 0.0 0.0 0.0 0.0 0.0 0.0 0.0 0.0 0.0 0.0 0.0 0.3 0.8 1.8 1.5
0.0 0.0 0.0 0.0 0.0 0.0 0.0 0.0 0.0 0.0 0.0 0.0 0.0 0.0 0.0 0.0 0.0 0.0 0.0 0.0 0.0 0.0 0.0 0.0 0.0 0.0 0.0 0.0 0.0 0.6 0.7 0.7 1.4 2.2 2.5 2.5 2.7 3.3
0.0 0.0 0.0 0.0 0.0 0.0 0.0 0.0 0.0 0.0 0.0 0.0 0.0 0.0 0.0 0.0 0.0 0.0 0.0 0.0 0.0 0.0 0.0 0.0 0.0 0.0 0.4 1.6 2.5 2.3 2.1 2.1 2.3 2.9 3.3 3.1 3.3 3.9
0.0 0.0 0.0 0.0 0.0 0.0 0.0 0.0 0.0 0.0 0.0 0.0 0.0 0.0 0.0 0.0 0.0 0.0 0.0 0.0 0.0 0.0 0.2 1.1 1.1 2.0 4.1 4.6 6.3 2.3 2.5 2.9 2.9 2.9 3.7 3.7 3.5 5.3
0.0 0.0 0.0 0.0 0.0 0.0 0.0 0.0 0.0 0.0 0.0 0.0 0.0 0.0 0.0 0.0 0.0 0.0 0.0 0.4 1.2 2.0 2.7 4.7 5.6 6.4 8.1 9.0 9.3 7.8 7.9 7.1 3.7 2.7 2.3 3.1 3.1 9.7
0.0 0.0 0.0 0.0 0.0 0.0 0.0 0.0 0.0 0.0 0.0 0.0 0.0 0.0 0.0 1.1 1.3 1.9 2.8 4.0 5.3 5.7 7.9 8.2 8.6 9.5 11.0 12.1 11.7 10.9 11.4 12.0 10.8 11.7 7.7 5.9 5.5 7.5
0.0 0.0 0.0 0.0 0.0 0.1 0.3 1.2 1.5 2.0 3.0 2.5 4.2 5.0 5.8 6.8 6.7 7.3 7.4 8.6 10.9 11.4 10.1 10.7 11.7 12.4 12.9 12.9 13.1 12.3 13.9 14.0 13.3 13.9 13.6 11.9 9.9 9.3
3.7 4.2 4.6 4.2 4.0 4.9 5.1 6.0 6.7 6.7 8.5 8.6 9.2 8.9 9.7 10.3 10.9 11.3 11.1 10.3 10.9 10.3 9.1 11.3 12.9 13.0 13.3 14.2 14.9 15.1 14.6 14.9 14.4 14.9 14.5 14.7 14.9 14.4
10.5 10.2 10.0 10.5 11.3 11.1 12.0 12.3 12.3 12.5 12.6 12.5 12.8 13.1 12.7 13.0 13.6 12.9 13.2 12.9 13.0 13.0 10.1 11.7 12.6 13.0 14.0 14.3 14.2 15.6 15.4 16.4 15.5 14.8 14.4 14.7 14.4 14.4
12.8 13.3 13.4 13.5 13.7 13.7 13.9 14.3 14.1 14.1 14.3 14.3 14.3 14.5 14.1 14.1 14.4 13.9 14.0 14.3 15.0 15.1 15.2 13.2 12.5 13.1 13.6 13.4 16.4 16.0 16.1 16.0 15.9 15.2 14.8 16.2 16.3 15.2
14.4 14.3 14.3 14.5 14.5 14.6 15.2 15.7 15.5 15.4 15.1 15.0 15.2 15.3 15.5 15.4 15.2 14.7 14.9 15.7 16.5 15.9 16.0 15.3 15.4 15.4 14.5 13.9 12.4 15.5 16.3 17.3 16.6 15.2 14.9 17.9 16.7 14.5
15.6 16.2 16.3 16.4 16.5 16.8 17.0 16.9 16.8 17.0 16.5 16.9 17.2 17.3 16.5 16.3 16.6 16.8 16.9 16.5 16.7 16.2 16.1 15.7 16.5 18.3 20.0 20.5 16.2 12.4 17.8 16.6 17.2 18.1 16.2 16.6 17.6 16.1
16.5 17.2 17.6 17.2 17.3 17.5 17.7 18.2 18.3 17.9 17.9 18.2 18.4 18.5 18.5 18.2 18.6 18.4 18.4 19.3 18.0 17.0 17.1 16.9 18.0 18.6 21.6 21.7 20.9 18.4 13.4 17.6 18.7 19.1 18.9 17.0 15.6 13.2
17.9 18.4 18.2 18.3 18.2 18.2 19.4 19.7 19.7 19.9 20.0 20.1 20.2 20.4 20.6 19.7 20.3 20.0 19.8 20.4 20.0 18.6 20.0 20.0 18.2 17.5 17.3 18.7 21.8 21.6 19.4 13.6 14.4 16.8 17.6 19.7 20.1 19.0
19.6 19.8 19.8 20.0 19.9 20.0 20.7 21.2 21.2 21.2 21.4 21.6 21.9 22.1 22.5 22.5 22.8 22.7 22.4 22.3 20.9 21.0 20.4 19.4 17.9 18.1 19.1 20.2 22.3 22.4 20.7 20.9 16.3 14.5 14.1 15.5 20.5 22.0
21.7 21.4 21.8 21.9 21.6 21.7 22.2 22.9 23.0 22.8 22.8 23.0 23.2 23.5 23.8 23.9 23.5 23.4 23.5 22.2 22.2 21.9 21.3 22.0 21.0 20.2 20.7 20.6 22.4 22.5 22.4 21.8 20.2 20.2 19.4 15.4 15.1 14.8

GFSNE_prec_kratio_108.txt.gz
Kuchera_Ratio
0.0 0.0 0.0 0.0 0.0 0.0 0.0 0.0 0.0 0.0 0.0 0.0 0.0 0.0 0.0 0.0 0.0 0.0 0.0 0.0 0.0 0.0 0.0 0.0 0.0 0.0 0.0 0.0 0.0 0.0 0.0 0.0 0.0 0.0 0.0 0.0 0.0 0.0
0.0 0.0 0.0 0.0 0.0 0.0 0.0 0.0 0.0 0.0 0.0 0.0 0.0 0.0 0.0 0.0 0.0 0.0 0.0 0.0 0.0 0.0 0.0 0.0 0.0 0.0 0.0 0.0 0.0 0.0 0.0 0.0 0.0 0.0 0.0 0.0 0.0 0.0
0.0 0.0 0.0 0.0 0.0 0.0 0.0 0.0 0.0 0.0 0.0 0.0 0.0 0.0 0.0 0.0 0.0 0.0 0.0 0.0 0.0 0.0 0.0 0.0 0.0 0.0 0.0 0.0 0.0 0.0 0.0 0.0 0.0 0.0 0.0 0.0 0.0 0.0
0.0 0.0 0.0 0.0 0.0 0.0 0.0 0.0 0.0 0.0 0.0 0.0 0.0 0.0 0.0 0.0 0.0 0.0 0.0 0.0 0.0 0.0 0.0 0.0 0.0 0.0 0.0 0.0 0.0 0.0 0.0 0.0 0.0 0.0 0.0 0.0 0.0 0.0
0.0 0.0 0.0 0.0 0.0 0.0 0.0 0.0 0.0 0.0 0.0 0.0 0.0 0.0 0.0 0.0 0.0 0.0 0.0 0.0 0.0 0.0 0.0 0.0 0.0 0.0 0.0 0.0 0.0 0.0 0.0 0.0 0.0 0.0 0.0 0.0 0.0 0.0
0.0 0.0 0.0 0.0 0.0 0.0 0.0 0.0 0.0 0.0 0.0 0.0 0.0 0.0 0.0 0.0 0.0 0.0 0.0 0.0 0.0 0.0 0.0 0.0 0.0 0.0 0.0 0.0 0.0 0.0 0.0 0.0 0.0 0.0 0.0 0.0 0.0 0.0
0.0 0.0 0.0 0.0 0.0 0.0 0.0 0.0 0.0 0.0 0.0 0.0 0.0 0.0 0.0 0.0 0.0 0.0 0.0 0.0 0.0 0.0 0.0 0.0 0.0 0.0 0.0 0.0 0.0 0.0 0.0 0.0 0.0 0.0 0.0 0.0 0.0 0.0
0.0 0.0 0.0 0.0 0.0 0.0 0.0 0.0 0.0 0.0 0.0 0.0 0.0 0.0 0.0 0.0 0.0 0.0 0.0 0.0 0.0 0.0 0.0 0.0 0.0 0.0 0.0 0.0 0.0 0.0 0.0 0.0 0.0 0.0 0.0 0.0 0.0 0.0
0.0 0.0 0.0 0.0 0.0 0.0 0.0 0.0 0.0 0.0 0.0 0.0 0.0 0.0 0.0 0.0 0.0 0.0 0.0 0.0 0.0 0.0 0.0 0.0 0.0 0.0 0.0 0.0 0.0 0.0 0.0 0.0 0.0 0.0 0.0 0.0 0.0 1.6
0.0 0.0 0.0 0.0 0.0 0.0 0.0 0.0 0.0 0.0 0.0 0.0 0.0 0.0 0.0 0.0 0.0 0.0 0.0 0.0 0.0 0.0 0.0 0.0 0.0 0.0 0.0 0.6 0.6 0.9 1.8 0.7 1.1 1.1 1.6 2.8 3.7 4.3
0.0 0.0 0.0 0.0 0.0 0.0 0.0 0.0 0.0 0.0 0.0 0.0 0.0 0.0 0.0 0.0 0.0 0.0 0.0 0.0 0.0 0.0 0.0 0.0 0.0 1.0 2.2 2.6 2.3 3.5 3.1 3.5 3.5 3.7 3.7 3.3 5.1 6.5
0.0 0.0 0.0 0.0 0.0 0.0 0.0 0.0 0.0 0.0 0.0 0.0 0.0 0.0 0.0 0.0 0.0 0.0 0.0 0.0 0.0 0.0 0.0 0.1 1.2 2.0 3.6 5.1 6.3 6.2 6.4 6.7 6.3 4.7 3.9 4.7 5.9 7.1
0.0 0.0 0.0 0.0 0.0 0.0 0.0 0.0 0.0 0.0 0.0 0.0 0.0 0.0 0.0 0.0 0.0 0.0 0.0 0.0 0.0 0.0 0.0 0.7 1.9 3.3 7.0 7.7 7.9 9.7 12.1 12.8 12.4 9.1 8.1 7.3 7.5 8.1
2.4 1.0 0.0 0.0 0.0 0.0 0.0 0.0 0.0 0.0 0.0 0.5 0.3 1.9 1.3 3.8 1.0 1.3 1.2 2.8 3.3 3.8 4.7 6.6 7.5 9.2 10.7 12.4 13.1 13.6 13.5 12.1 10.5 11.1 10.5 9.9 10.1 10.9
6.4 4.8 4.9 4.0 2.7 1.4 2.5 2.9 3.0 4.9 5.2 3.6 4.1 6.0 7.5 7.5 7.0 7.3 6.8 7.2 8.0 8.3 9.5 10.6 12.1 12.6 12.8 13.7 14.3 13.6 13.0 12.6 11.5 12.0 12.0 12.3 12.4 12.3
12.4 12.3 10.8 9.3 6.7 5.9 6.5 6.5 7.9 8.0 8.0 8.5 9.2 10.0 10.9 11.1 11.7 12.0 12.0 12.4 12.4 12.8 10.7 11.1 11.1 10.5 13.3 12.7 13.1 14.5 13.3 14.4 12.8 12.7 12.5 13.0 13.0 12.6
14.5 14.8 14.8 14.6 13.9 13.0 12.6 12.4 12.6 12.6 12.5 12.9 13.3 13.5 13.5 13.3 13.6 13.9 14.3 14.5 14.9 15.4 16.1 13.2 11.1 10.9 11.5 12.6 15.2 14.5 14.9 14.9 14.2 14.0 13.8 14.7 13.7 13.1
15.2 15.4 15.4 15.7 15.8 15.8 15.7 15.8 15.9 15.9 15.7 15.7 15.7 15.7 15.8 15.8 15.5 14.9 14.9 15.7 16.7 16.9 16.8 16.3 15.6 14.6 14.4 14.2 13.1 15.9 15.7 15.5 14.8 14.5 14.6 16.4 16.2 14.3
16.2 17.1 17.1 17.1 17.0 17.0 17.1 17.1 17.1 17.1 17.2 17.1 17.0 16.8 16.4 16.5 16.4 16.4 16.1 16.3 17.4 17.6 17.7 17.0 17.1 17.6 18.6 19.0 15.8 13.2 16.8 16.4 16.5 16.9 16.2 16.7 17.7 16.4
18.3 18.4 18.5 18.5 18.4 18.5 18.8 18.9 18.8 18.7 18.9 19.0 19.0 18.5 17.9 17.6 17.9 18.0 17.6 17.5 17.6 17.7 18.2 17.7 18.4 18.4 19.4 20.0 19.4 17.5 14.3 16.8 17.3 18.6 18.5 16.9 16.2 14.9
19.6 19.8 19.8 19.9 20.1 20.0 19.9 20.0 20.1 20.3 20.4 20.4 20.5 20.4 20.2 18.9 19.4 19.0 19.1 19.4 18.6 18.3 19.8 19.9 18.5 17.1 16.7 17.7 20.6 20.3 18.2 15.6 16.0 17.8 18.1 19.3 19.8 19.0
21.4 21.5 21.6 21.5 21.5 21.5 21.5 21.5 21.5 21.6 21.5 21.5 21.4 21.3 21.4 21.0 21.3 20.9 20.6 20.7 20.5 20.4 20.4 19.4 18.2 17.9 18.6 20.0 21.8 22.1 20.4 19.5 17.5 16.6 16.4 17.3 19.4 22.2
22.7 22.7 22.7 22.9 22.9 22.9 22.9 23.0 22.8 22.7 22.7 22.7 22.8 23.0 23.0 22.9 22.7 22.2 22.0 21.5 21.5 21.8 21.4 21.6 20.6 19.9 20.3 21.3 22.2 22.5 22.3 21.8 20.7 20.6 19.3 17.2 16.7 16.4

GFSNE_prec_kratio_114.txt.gz
Kuchera_Ratio
0.0 0.0 0.0 0.0 0.0 0.0 0.0 0.0 0.0 0.0 0.0 0.0 0.0 0.0 0.0 0.0 0.0 0.0 0.0 0.0 0.0 0.0 0.0 0.0 0.0 0.0 0.0 0.0 0.0 0.0 0.0 0.0 0.0 0.0 0.0 0.0 0.0 0.0
0.0 0.0 0.0 0.0 0.0 0.0 0.0 0.0 0.0 0.0 0.0 0.0 0.0 0.0 0.0 0.0 0.0 0.0 0.0 0.0 0.0 0.0 0.0 0.0 0.0 0.0 0.0 0.0 0.0 0.0 0.0 0.0 0.0 0.0 0.0 0.0 0.0 0.0
0.0 0.0 0.0 0.0 0.0 0.0 0.0 0.0 0.0 0.0 0.0 0.0 0.0 0.0 0.0 0.0 0.0 0.0 0.0 0.0 0.0 0.0 0.0 0.0 0.0 0.0 0.0 0.0 0.0 0.0 0.0 0.0 0.0 0.0 0.0 0.0 0.0 0.0
0.0 0.0 0.0 0.0 0.0 0.0 0.0 0.0 0.0 0.0 0.0 0.0 0.0 0.0 0.0 0.0 0.0 0.0 0.0 0.0 0.0 0.0 0.0 0.0 0.0 0.0 0.0 0.0 0.0 0.0 0.0 0.0 0.0 0.0 0.0 0.0 0.0 0.0
0.0 0.0 0.0 0.0 0.0 0.0 0.0 0.0 0.0 0.0 0.0 0.0 0.0 0.0 0.0 0.0 0.0 0.0 0.0 0.0 0.0 0.0 0.0 0.0 0.0 0.0 0.0 0.0 0.0 0.0 0.0 0.0 0.0 0.0 0.0 0.0 0.0 0.0
0.0 0.0 0.0 0.0 0.0 0.0 0.0 0.0 0.0 0.0 0.0 0.0 0.0 0.0 0.0 0.0 0.0 0.0 0.0 0.0 0.0 0.0 0.0 0.0 0.0 0.0 0.0 0.0 0.0 0.0 0.0 0.0 0.0 0.0 0.0 0.0 0.0 0.0
0.0 0.0 0.0 0.0 0.0 0.0 0.0 0.0 0.0 0.0 0.0 0.0 0.0 0.0 0.0 0.0 0.0 0.0 0.0 0.0 0.0 0.0 0.0 0.0 0.0 0.0 0.0 0.0 0.0 0.0 0.0 0.0 0.0 0.0 0.0 0.0 0.0 0.0
0.0 0.0 0.0 0.0 0.0 0.0 0.0 0.0 0.0 0.0 0.0 0.0 0.0 0.0 0.0 0.0 0.0 0.0 0.0 0.0 0.0 0.0 0.0 0.0 0.0 0.0 0.0 0.0 0.0 0.0 0.0 0.0 0.0 0.0 0.0 0.0 0.0 0.0
0.0 0.0 0.0 0.0 0.0 0.0 0.0 0.0 0.0 0.0 0.0 0.0 0.0 0.0 0.0 0.0 0.0 0.0 0.0 0.0 0.0 0.0 0.0 0.0 0.0 0.0 0.0 0.0 0.0 0.0 0.0 0.0 0.0 0.0 0.0 0.0 0.0 0.0
0.0 0.0 0.0 0.0 0.0 0.0 0.0 0.0 0.0 0.0 0.0 0.0 0.0 0.0 0.0 0.0 0.0 0.0 0.0 0.0 0.0 0.0 0.0 0.0 0.0 0.0 0.0 0.0 0.0 0.0 0.0 0.0 0.0 0.0 0.0 0.0 0.0 0.5
0.0 0.0 0.0 0.0 0.0 0.0 0.0 0.0 0.0 0.0 0.0 0.0 0.0 0.0 0.0 0.0 0.0 0.0 0.0 0.0 0.0 0.0 0.0 0.0 0.0 0.0 0.0 0.0 0.0 0.0 0.0 0.0 0.0 0.0 0.3 0.4 2.2 2.4
0.5 0.0 0.0 0.0 0.0 0.0 0.0 0.0 0.0 0.0 0.0 0.0 0.0 0.0 0.0 0.0 0.0 0.0 0.0 0.0 0.0 0.0 0.0 0.0 0.0 0.0 1.5 0.6 3.3 0.1 2.8 0.0 1.6 0.4 2.1 6.1 7.2 5.2
5.0 4.0 3.5 1.9 0.0 0.0 0.0 0.0 0.0 0.0 0.0 0.0 0.0 0.2 0.0 0.0 0.0 0.0 0.0 0.0 0.0 0.0 0.0 0.0 0.0 0.0 1.2 1.9 4.5 4.6 6.4 2.9 7.2 8.1 8.3 9.1 8.4 5.6
9.8 9.6 8.1 7.2 5.0 4.5 2.8 1.6 3.4 3.5 2.3 3.1 2.9 1.5 0.8 0.0 1.0 1.7 0.4 0.0 0.0 0.0 0.0 0.0 0.0 0.0 0.6 2.3 2.0 7.2 7.7 8.2 8.8 10.0 12.1 11.6 9.0 8.2
10.4 11.4 11.6 11.8 11.9 9.3 6.5 6.3 6.1 6.9 7.6 6.3 6.7 5.3 3.7 2.5 1.6 1.4 1.7 1.5 0.9 3.2 4.9 4.2 4.7 3.1 5.3 4.1 2.7 8.1 8.7 10.2 11.6 12.0 11.2 8.0 5.4 4.6
8.6 8.4 9.6 10.2 10.4 12.0 12.7 12.6 12.1 11.5 11.6 11.4 11.7 10.6 9.2 8.3 7.4 7.2 7.7 6.8 6.1 5.8 8.4 8.4 8.5 10.1 11.5 11.4 13.1 13.6 13.2 13.7 11.6 10.8 8.2 6.4 5.4 4.6
8.2 8.0 9.0 9.0 9.8 9.8 10.2 11.6 10.6 11.2 12.8 13.0 13.3 13.4 13.7 13.3 13.0 12.7 12.3 11.8 12.4 12.2 12.3 12.3 12.7 12.5 12.2 11.8 13.1 12.4 12.6 12.3 9.8 10.0 9.8 11.0 8.4 5.6
9.6 12.2 12.9 12.6 12.7 12.3 12.4 12.2 12.2 12.4 12.1 12.2 12.6 12.6 12.9 12.9 13.3 13.8 13.8 14.6 15.0 15.0 14.5 13.4 13.2 13.7 14.0 14.4 12.5 14.0 13.6 13.8 13.2 12.5 12.2 13.1 12.1 7.6
12.5 13.2 13.9 13.8 13.4 13.0 13.1 13.0 13.5 13.4 13.0 12.9 13.0 12.9 13.1 13.3 13.4 13.9 14.4 14.9 15.6 15.5 15.3 14.2 13.6 13.4 15.1 17.7 15.8 13.9 14.8 14.5 14.2 13.8 12.5 12.2 12.6 10.2
12.7 13.4 13.6 13.2 13.1 13.2 13.4 14.0 13.8 13.5 13.6 13.7 13.8 13.8 13.7 13.7 14.2 14.7 14.9 15.5 16.0 16.3 16.6 15.6 15.2 14.5 14.7 16.2 17.0 16.7 14.2 13.9 13.8 14.1 13.5 12.3 11.2 12.2
13.8 14.1 14.1 14.0 13.8 13.5 14.0 14.1 14.5 14.7 14.3 14.2 14.1 14.2 14.2 13.6 14.8 15.0 15.2 15.2 14.9 14.9 16.2 16.2 15.9 14.1 13.4 13.5 16.9 17.0 15.8 15.3 15.0 14.4 13.9 14.0 13.4 12.3
15.1 14.8 14.8 14.8 15.3 15.1 15.0 15.3 14.5 14.7 14.6 14.4 14.8 14.2 13.9 13.7 14.7 14.6 14.5 14.8 14.8 15.0 15.5 14.4 13.1 12.8 13.1 13.9 16.5 17.2 15.6 14.9 15.1 15.9 16.3 17.3 15.6 15.6
17.2 16.3 16.2 16.5 16.3 16.2 15.7 16.3 16.4 15.8 16.1 15.7 15.2 14.9 15.2 15.0 14.2 14.2 14.5 14.7 14.5 14.9 14.7 15.0 14.0 13.3 14.5 15.0 15.2 16.0 17.4 15.8 13.9 13.8 14.0 16.4 16.0 16.2

GFSNE_prec_kratio_117.txt.gz
Kuchera_Ratio
0.0 0.0 0.0 0.0 0.0 0.0 0.0 0.0 0.0 0.0 0.0 0.0 0.0 0.0 0.0 0.0 0.0 0.0 0.0 0.0 0.0 0.0 0.0 0.0 0.0 0.0 0.0 0.0 0.0 0.0 0.0 0.0 0.0 0.0 0.0 0.0 0.0 0.0
0.0 0.0 0.0 0.0 0.0 0.0 0.0 0.0 0.0 0.0 0.0 0.0 0.0 0.0 0.0 0.0 0.0 0.0 0.0 0.0 0.0 0.0 0.0 0.0 0.0 0.0 0.0 0.0 0.0 0.0 0.0 0.0 0.0 0.0 0.0 0.0 0.0 0.0
0.0 0.0 0.0 0.0 0.0 0.0 0.0 0.0 0.0 0.0 0.0 0.0 0.0 0.0 0.0 0.0 0.0 0.0 0.0 0.0 0.0 0.0 0.0 0.0 0.0 0.0 0.0 0.0 0.0 0.0 0.0 0.0 0.0 0.0 0.0 0.0 0.0 0.0
0.0 0.0 0.0 0.0 0.0 0.0 0.0 0.0 0.0 0.0 0.0 0.0 0.0 0.0 0.0 0.0 0.0 0.0 0.0 0.0 0.0 0.0 0.0 0.0 0.0 0.0 0.0 0.0 0.0 0.0 0.0 0.0 0.0 0.0 0.0 0.0 0.0 0.0
0.0 0.0 0.0 0.0 0.0 0.0 0.0 0.0 0.0 0.0 0.0 0.0 0.0 0.0 0.0 0.0 0.0 0.0 0.0 0.0 0.0 0.0 0.0 0.0 0.0 0.0 0.0 0.0 0.0 0.0 0.0 0.0 0.0 0.0 0.0 0.0 0.0 0.0
0.0 0.0 0.0 0.0 0.0 0.0 0.0 0.0 0.0 0.0 0.0 0.0 0.0 0.0 0.0 0.0 0.0 0.0 0.0 0.0 0.0 0.0 0.0 0.0 0.0 0.0 0.0 0.0 0.0 0.0 0.0 0.0 0.0 0.0 0.0 0.0 0.0 0.0
0.0 0.0 0.0 0.0 0.0 0.0 0.0 0.0 0.0 0.0 0.0 0.0 0.0 0.0 0.0 0.0 0.0 0.0 0.0 0.0 0.0 0.0 0.0 0.0 0.0 0.0 0.0 0.0 0.0 0.0 0.0 0.0 0.0 0.0 0.0 0.0 0.0 0.0
0.0 0.0 0.0 0.0 0.0 0.0 0.0 0.0 0.0 0.0 0.0 0.0 0.0 0.0 0.0 0.0 0.0 0.0 0.0 0.0 0.0 0.0 0.0 0.0 0.0 0.0 0.0 0.0 0.0 0.0 0.0 0.0 0.0 0.0 0.0 0.0 0.0 0.0
0.0 0.0 0.0 0.0 0.0 0.0 0.0 0.0 0.0 0.0 0.0 0.0 0.0 0.0 0.0 0.0 0.0 0.0 0.0 0.0 0.0 0.0 0.0 0.0 0.0 0.0 0.0 0.0 0.0 0.0 0.0 0.0 0.0 0.0 0.0 0.0 0.0 0.0
0.0 0.0 0.0 0.0 0.0 0.0 0.0 0.0 0.0 0.0 0.0 0.0 0.0 0.0 0.0 0.0 0.0 0.0 0.0 0.0 0.0 0.0 0.0 0.0 0.0 0.0 0.0 0.0 0.0 0.0 0.0 0.0 0.0 0.0 0.0 0.0 0.0 0.0
0.0 0.0 0.0 0.0 0.0 0.0 0.0 0.0 0.0 0.0 0.0 0.0 0.0 0.0 0.0 0.0 0.0 0.0 0.0 0.0 0.0 0.0 0.0 0.0 0.0 0.0 0.0 0.0 0.0 0.0 0.0 0.0 0.0 0.0 0.0 0.0 0.0 0.0
5.4 4.3 2.7 0.7 0.2 0.0 0.0 0.0 0.0 0.0 0.0 0.0 0.0 0.0 0.0 0.0 0.0 0.0 0.0 0.0 0.0 0.0 0.0 0.0 0.0 0.0 0.0 0.0 0.0 0.1 0.5 2.1 1.8 1.1 0.3 0.0 1.2 2.9
8.7 7.9 8.2 6.7 6.2 5.3 4.1 1.9 1.0 0.7 0.5 0.0 0.0 0.0 0.0 0.0 0.0 0.0 0.0 0.0 0.0 0.0 0.0 0.0 0.0 0.0 0.2 0.2 1.9 2.7 3.7 4.9 6.7 6.8 6.5 6.3 5.9 6.6
11.4 10.4 9.8 9.2 9.8 9.0 7.7 7.0 5.9 5.0 4.6 4.7 4.1 3.7 3.0 1.6 0.0 0.0 0.0 0.3 0.7 0.0 0.0 0.0 0.0 0.9 0.8 1.7 2.2 3.3 5.9 8.0 8.3 8.1 7.4 7.6 9.4 8.5
8.0 7.8 7.0 6.8 7.4 8.4 9.0 10.2 10.3 10.5 9.7 8.5 7.0 7.0 7.5 6.4 5.3 5.2 3.8 3.2 3.2 4.0 4.0 4.5 3.4 4.4 6.3 6.2 2.0 2.7 7.0 9.1 10.3 10.9 11.0 12.0 12.2 12.0
7.2 6.4 6.8 7.6 6.6 7.0 7.8 7.8 7.6 8.6 10.8 12.3 12.8 12.6 12.2 11.7 11.4 10.8 9.6 9.2 8.1 6.3 6.3 6.4 6.3 7.9 8.9 9.2 9.6 8.5 9.7 11.1 10.9 12.2 11.6 11.4 10.6 8.0
7.4 7.6 9.4 9.4 10.0 9.4 9.0 9.0 8.8 8.8 9.8 9.2 9.4 9.6 9.8 11.2 12.9 12.9 13.3 13.1 13.1 12.3 11.7 10.4 10.1 11.0 10.8 12.1 13.0 13.1 13.4 13.1 11.8 11.8 11.8 12.9 11.8 11.0
9.2 12.3 12.9 12.7 12.8 12.7 12.7 12.5 12.0 12.3 12.0 10.8 9.8 9.4 11.0 11.6 12.4 12.4 12.9 13.4 14.2 14.3 14.0 12.8 12.7 13.4 13.5 14.1 12.2 13.7 14.0 14.4 13.7 13.2 12.8 13.4 13.3 12.1
12.2 12.4 13.0 12.9 12.8 12.6 13.0 13.4 14.0 13.1 12.2 12.3 12.2 12.0 10.6 11.2 12.2 13.0 13.4 14.3 15.1 14.6 14.4 13.6 12.6 13.2 15.8 17.1 15.6 13.6 14.7 14.5 14.3 14.4 13.9 14.1 13.9 12.4
12.5 13.6 14.1 13.6 13.2 13.0 13.1 13.4 13.6 13.6 13.6 13.3 13.3 13.2 12.7 12.7 13.1 13.6 14.0 14.8 15.2 15.5 15.7 15.3 15.1 14.3 15.5 16.8 17.4 17.2 13.8 14.2 14.2 15.3 15.2 13.1 11.4 11.2
13.8 13.6 13.9 14.1 14.0 13.7 14.4 14.3 13.8 13.9 13.6 13.6 13.7 13.4 13.4 13.2 13.9 14.1 14.7 15.3 15.3 15.5 17.1 17.2 15.9 14.2 14.5 14.8 17.8 18.0 17.3 14.3 14.6 14.2 14.2 14.7 14.2 13.2
15.4 15.0 14.7 15.2 15.8 15.3 14.9 15.2 14.7 14.7 14.5 14.3 14.3 14.4 13.8 12.8 13.3 13.5 13.6 14.0 14.3 14.8 15.1 14.0 12.8 12.7 13.1 14.7 17.2 17.6 17.0 15.9 15.2 15.2 15.3 15.9 16.2 15.4
17.0 16.4 16.2 16.4 16.7 16.4 16.1 16.5 16.4 16.5 16.1 15.6 15.5 15.0 14.7 14.6 13.5 13.3 13.5 13.7 13.5 14.0 14.0 14.5 13.5 12.8 13.5 14.3 15.6 16.8 17.3 15.9 14.8 16.5 16.1 15.4 15.6 15.5